This is the latest recevied weather packets stored in our database for station/object WA4TPR. If no packets are shown the sender has not sent any weather packets the latest 1 day(s).
| Time | Temp. | Humidity | Pressure | Rain* | Wind** | Luminosity | Snow |
|---|---|---|---|---|---|---|---|
| 1778040698 | 21.67° C | 91% | 1020.7 hPa | 0 mm | 0.45 m/s, 107° | 0 W/m² | - |
| 1778040396 | 21.67° C | 90% | 1020.8 hPa | 0 mm | 0.45 m/s, 110° | 0 W/m² | - |
| 1778040092 | 21.67° C | 90% | 1020.7 hPa | 0 mm | 0.45 m/s, 120° | 0 W/m² | - |
| 1778039789 | 21.67° C | 90% | 1020.7 hPa | 0 mm | 0.45 m/s, 113° | 0 W/m² | - |
| 1778039486 | 21.67° C | 90% | 1020.8 hPa | 0 mm | 0 m/s | 0 W/m² | - |
| 1778039183 | 21.67° C | 90% | 1020.6 hPa | 0 mm | 0 m/s | 0 W/m² | - |
| 1778038880 | 21.67° C | 90% | 1020.6 hPa | 0 mm | 0 m/s | 0 W/m² | - |
| 1778038577 | 21.67° C | 89% | 1020.6 hPa | 0 mm | 0.89 m/s, 114° | 0 W/m² | - |
| 1778038274 | 21.67° C | 89% | 1020.7 hPa | 0 mm | 0.45 m/s, 104° | 0 W/m² | - |
| 1778037972 | 21.67° C | 89% | 1020.7 hPa | 0 mm | 0 m/s | 0 W/m² | - |
| 1778037668 | 22.22° C | 88% | 1020.7 hPa | 0 mm | 0 m/s | 0 W/m² | - |
| 1778037365 | 22.22° C | 88% | 1020.7 hPa | 0 mm | 0 m/s | 0 W/m² | - |
| 1778037062 | 22.22° C | 88% | 1020.8 hPa | 0 mm | 0.89 m/s, 96° | 0 W/m² | - |
| 1778036761 | 22.22° C | 87% | 1020.9 hPa | 0 mm | 0.45 m/s, 118° | 0 W/m² | - |
| 1778036457 | 22.78° C | 87% | 1020.6 hPa | 0 mm | 0 m/s | 0 W/m² | - |
| 1778036154 | 22.78° C | 86% | 1020.7 hPa | 0 mm | 0 m/s | 0 W/m² | - |
| 1778035850 | 22.78° C | 86% | 1020.7 hPa | 0 mm | 0.45 m/s, 105° | 0 W/m² | - |
| 1778035548 | 22.78° C | 86% | 1020.7 hPa | 0 mm | 1.34 m/s, 108° | 0 W/m² | - |
| 1778035244 | 22.78° C | 85% | 1020.7 hPa | 0 mm | 0.45 m/s, 124° | 0 W/m² | - |
| 1778034940 | 22.78° C | 85% | 1020.6 hPa | 0 mm | 1.34 m/s, 147° | 0 W/m² | - |
| 1778034638 | 22.78° C | 85% | 1020.6 hPa | 0 mm | 0.45 m/s, 106° | 0 W/m² | - |
| 1778034335 | 22.78° C | 85% | 1020.4 hPa | 0 mm | 1.34 m/s, 121° | 0 W/m² | - |
| 1778034032 | 22.78° C | 85% | 1020.4 hPa | 0 mm | 0.45 m/s, 79° | 0 W/m² | - |
| 1778033730 | 23.33° C | 84% | 1020.2 hPa | 0 mm | 0.45 m/s, 85° | 0 W/m² | - |
| 1778033427 | 23.33° C | 84% | 1020.2 hPa | 0 mm | 0.45 m/s, 95° | 0 W/m² | - |
* Rain latest hour (hover to see other rain measurements)
** Current wind speed in m/s (hover to see current wind gust speed)